This is the latest recevied weather packets stored in our database for station/object WY1B. If no packets are shown the sender has not sent any weather packets the latest 10 day(s).
| Time | Temp. | Humidity | Pressure | Rain* | Wind** | Luminosity | Snow |
|---|---|---|---|---|---|---|---|
| 1787744669 | 33.33° C | 29% | 1002.5 hPa | 0 mm | - | 0 W/m² | - |
| 1787744366 | 33.33° C | 26% | 1002.5 hPa | 0 mm | - | 0 W/m² | - |
| 1787744061 | 33.33° C | 25% | 1002.5 hPa | 0 mm | - | 0 W/m² | - |
| 1787743760 | 33.33° C | 26% | 1002.3 hPa | 0 mm | - | 0 W/m² | - |
| 1787743460 | 33.33° C | 26% | 1002.3 hPa | 0 mm | - | 0 W/m² | - |
| 1787743157 | 33.33° C | 24% | 1002.3 hPa | 0 mm | - | 0 W/m² | - |
| 1787742852 | 33.33° C | 25% | 1002.5 hPa | 0 mm | - | 0 W/m² | - |
| 1787742548 | 33.33° C | 26% | 1002.4 hPa | 0 mm | - | 0 W/m² | - |
| 1787742243 | 33.33° C | 27% | 1002.4 hPa | 0 mm | - | 0 W/m² | - |
| 1787741938 | 33.33° C | 26% | 1002.4 hPa | 0 mm | - | 0 W/m² | - |
| 1787741634 | 33.89° C | 26% | 1002.3 hPa | 0 mm | - | 0 W/m² | - |
| 1787741330 | 33.89° C | 25% | 1002.4 hPa | 0 mm | - | 0 W/m² | - |
| 1787741029 | 33.89° C | 25% | 1002.4 hPa | 0 mm | - | 0 W/m² | - |
| 1787740724 | 34.44° C | 27% | 1002.3 hPa | 0 mm | - | 0 W/m² | - |
| 1787740423 | 34.44° C | 24% | 1002.1 hPa | 0 mm | - | 0 W/m² | - |
| 1787740118 | 35° C | 23% | 1002.5 hPa | 0 mm | - | 0 W/m² | - |
| 1787739814 | 35.56° C | 24% | 1002.3 hPa | 0 mm | - | 0 W/m² | - |
| 1787739511 | 35.56° C | 22% | 1002.3 hPa | 0 mm | - | 0 W/m² | - |
| 1787739210 | 36.11° C | 22% | 1002.3 hPa | 0 mm | - | 0 W/m² | - |
| 1787738906 | 36.67° C | 21% | 1002.1 hPa | 0 mm | - | 0 W/m² | - |
| 1787738603 | 36.67° C | 20% | 1002.5 hPa | 0 mm | - | 0 W/m² | - |
| 1787738301 | 36.67° C | 20% | 1002.1 hPa | 0 mm | - | 0 W/m² | - |
| 1787737996 | 37.22° C | 20% | 1001.9 hPa | 0 mm | - | 0 W/m² | - |
| 1787737691 | 37.22° C | 20% | 1002.1 hPa | 0 mm | - | 0 W/m² | - |
| 1787737390 | 37.22° C | 20% | 1002 hPa | 0 mm | - | 0 W/m² | - |
* Rain latest hour (hover to see other rain measurements)
** Current wind speed in m/s (hover to see current wind gust speed)